GW2741 Weather Reports


time (UTC)temp
C
wind
direction
speed
KPH
gust
KPH
rain 1hr
cm
rain 24hr
cm
rain mn
cm
humidity
%
barometer
mb
20260508122220 12 331 6.4 11.3 0.00 0.03 4.27 46 1016.3
20260508121320 13 313 4.8 11.3 0.00 0.03 4.27 48 1016.3
20260508120420 12 305 4.8 8.0 0.00 0.03 4.27 49 1016.4
20260508115520 12 292 4.8 8.0 0.00 0.03 4.27 47 1016.4
20260508114620 12 302 4.8 9.7 0.00 0.03 4.27 49 1016.3
20260508113720 12 278 4.8 8.0 0.00 0.03 4.27 49 1016.5
20260508111920 12 331 6.4 9.7 0.00 0.03 4.27 50 1015.9
20260508111020 12 332 4.8 9.7 0.00 0.03 4.27 51 1015.9
20260508110120 13 339 6.4 11.3 0.00 0.03 4.27 50 1015.9
20260508105221 13 330 6.4 12.9 0.00 0.03 4.27 50 1015.6
20260508104320 13 315 6.4 11.3 0.00 0.03 4.27 50 1015.5
20260508103420 13 297 4.8 9.7 0.00 0.03 4.27 51 1015.6
20260508102520 13 313 6.4 8.0 0.00 0.03 4.27 51 1015.5
20260508101621 12 318 6.4 11.3 0.00 0.03 4.27 51 1015.7
20260508100720 12 304 4.8 8.0 0.00 0.03 4.27 52 1015.4
20260508094920 12 292 6.4 11.3 0.00 0.03 4.27 49 1015.5
20260508094020 12 296 6.4 9.7 0.00 0.03 4.27 50 1015.2
20260508093120 12 292 6.4 9.7 0.00 0.03 4.27 51 1015.0
20260508092220 13 301 4.8 6.4 0.00 0.03 4.27 53 1014.9
20260508091320 13 291 4.8 8.0 0.00 0.03 4.27 55 1014.9
20260508085520 13 296 4.8 9.7 0.00 0.03 4.27 60 1014.8
20260508084620 12 284 6.4 9.7 0.00 0.03 4.27 61 1014.6
20260508083721 12 290 4.8 11.3 0.00 0.03 4.27 65 1014.6
20260508082820 11 282 6.4 11.3 0.00 0.03 4.27 67 1014.6
20260508081920 11 309 6.4 12.9 0.00 0.03 4.27 69 1014.6
20260508081020 11 294 6.4 12.9 0.00 0.03 4.27 70 1014.6
20260508080120 11 292 6.4 12.9 0.00 0.03 4.27 72 1014.5
20260508075220 11 290 4.8 12.9 0.00 0.03 4.27 74 1014.3
20260508074320 11 293 4.8 9.7 0.00 0.03 4.27 76 1014.3
20260508073420 11 289 4.8 9.7 0.00 0.03 4.27 77 1014.1
20260508072520 11 276 3.2 6.4 0.00 0.03 4.27 79 1014.1
20260508070720 10 267 3.2 8.0 0.00 0.03 4.27 80 1013.7
20260508064920 10 210 1.6 6.4 0.00 0.03 4.27 80 1013.4
20260508064020 10 234 1.6 4.8 0.00 0.03 4.27 80 1013.4
20260508063120 9 218 1.6 3.2 0.00 0.03 4.27 80 1013.5
20260508062220 9 160 1.6 3.2 0.00 0.03 4.27 80 1013.2
20260508061320 8 124 0.0 3.2 0.00 0.03 4.27 80 1013.2
20260507230643 8 116 1.6 3.2 0.00 0.00 0.00 75 1014.2
20260507225745 8 207 1.6 3.2 0.00 0.00 0.00 75 1014.0
20260507223943 8 175 1.6 3.2 0.00 0.00 0.00 75 1013.8
20260507223043 8 154 1.6 3.2 0.00 0.00 0.00 74 1013.8
20260507222143 8 149 1.6 3.2 0.00 0.00 0.00 74 1013.9
20260507221243 9 172 1.6 4.8 0.00 0.00 0.00 74 1013.8
20260507220343 9 173 1.6 6.4 0.00 0.00 0.00 74 1013.8
20260507215443 9 188 0.0 3.2 0.00 0.00 0.00 74 1013.9
20260507214543 9 192 0.0 3.2 0.00 0.00 0.00 74 1013.8
20260507213643 9 176 0.0 3.2 0.00 0.00 0.00 74 1013.7
20260507212743 9 246 0.0 3.2 0.00 0.00 0.00 73 1013.7
20260507211843 9 248 1.6 3.2 0.00 0.00 0.00 73 1014.0
20260507210943 9 265 3.2 6.4 0.00 0.00 0.00 73 1013.9
20260507205143 10 312 4.8 8.0 0.00 0.00 0.00 72 1013.4
20260507204243 10 286 3.2 6.4 0.00 0.00 0.00 72 1013.3
20260507203343 10 306 4.8 12.9 0.00 0.00 0.00 72 1013.5
20260507202443 10 296 4.8 11.3 0.00 0.00 0.00 72 1013.4
20260507201543 10 293 4.8 12.9 0.00 0.00 0.00 71 1013.4
20260507200643 10 189 1.6 4.8 0.00 0.00 0.00 71 1013.3
20260507195743 10 249 1.6 6.4 0.00 0.00 0.00 71 1013.2
20260507194843 10 293 1.6 3.2 0.00 0.00 0.00 70 1013.2
20260507193943 10 316 1.6 4.8 0.00 0.00 0.00 70 1013.1
20260507193043 10 7 1.6 4.8 0.00 0.00 0.00 68 1012.9
20260507192143 10 114 1.6 6.4 0.00 0.00 0.00 67 1012.8
20260507191243 10 114 1.6 6.4 0.00 0.00 0.00 67 1012.5
20260507190343 10 8 1.6 4.8 0.00 0.00 0.00 65 1012.7
20260507183643 11 311 4.8 8.0 0.00 0.00 0.00 61 1012.5
20260507182743 11 337 6.4 11.3 0.00 0.00 0.00 60 1012.3
20260507181844 11 332 6.4 12.9 0.00 0.00 0.00 56 1012.2
20260507180944 12 287 6.4 12.9 0.00 0.00 0.00 51 1012.1
20260507180044 12 295 6.4 14.5 0.00 0.00 0.00 51 1012.1
20260507175144 12 257 4.8 9.7 0.00 0.00 0.00 52 1012.1
20260507174243 13 269 4.8 8.0 0.00 0.00 0.00 53 1012.2
20260507170643 12 306 11.3 22.5 0.00 0.00 0.00 52 1011.8
20260507165744 13 281 11.3 20.9 0.00 0.00 0.00 52 1012.0
20260507164844 13 267 9.7 17.7 0.00 0.00 0.00 51 1012.0
20260507163943 13 286 6.4 12.9 0.00 0.00 0.00 50 1012.0
20260507161244 13 257 3.2 9.7 0.00 0.00 0.00 47 1011.9
20260507155445 13 244 4.8 14.5 0.00 0.00 0.00 44 1011.9
20260507154543 13 327 4.8 11.3 0.00 0.00 0.00 42 1012.0
20260507153644 14 185 9.7 20.9 0.00 0.00 0.00 41 1011.5
20260507152743 13 159 14.5 22.5 0.00 0.00 0.00 41 1011.9
20260507151844 14 166 14.5 20.9 0.00 0.00 0.00 40 1011.9
20260507150944 14 169 16.1 25.7 0.00 0.00 0.00 36 1011.7
20260507150043 15 175 14.5 27.4 0.00 0.00 0.00 32 1011.6
20260507145144 15 174 9.7 19.3 0.00 0.00 0.00 30 1011.7
20260507144244 16 181 8.0 16.1 0.00 0.00 0.00 30 1011.8
20260507143344 16 130 9.7 16.1 0.00 0.00 0.00 31 1012.0
20260507142443 16 82 8.0 19.3 0.00 0.00 0.00 32 1012.0
20260507141544 15 124 6.4 12.9 0.00 0.00 0.00 33 1012.1
20260507134844 14 151 12.9 19.3 0.00 0.00 0.00 35 1012.1
20260507133944 14 185 11.3 20.9 0.00 0.00 0.00 37 1012.2
20260507133044 14 173 14.5 24.1 0.00 0.00 0.00 40 1012.3
20260507132144 13 166 14.5 22.5 0.00 0.00 0.00 40 1012.4
20260507130344 13 153 16.1 27.4 0.00 0.00 0.00 40 1012.7
20260507125444 13 174 17.7 25.7 0.00 0.00 0.00 40 1012.5
20260507124544 13 169 16.1 24.1 0.00 0.00 0.00 40 1012.3
20260507123644 14 176 14.5 27.4 0.00 0.00 0.00 40 1012.8
20260507122744 13 166 16.1 27.4 0.00 0.00 0.00 40 1012.6